This demonstration page uses our WeatherBlox Daily Observations layout. Learn more.

Left ArrowRight Arrow

34.16533, -84.80231

Hourly Observations for December 2, 2022

Temp ( °F °C ) Dew Point ( °F °C ) Humidity (%) Winds ( mph kmh ) Pressure ( in mb ) Visibility ( mi km ) Precip ( " mm )
12:15 am 00:15 Clear 37 3 32 0 81 81 Calm 30.46 1032 10 16 0.00 0.00
12:35 am 00:35 Clear 36 2 32 0 87 87 Calm 30.47 1032 10 16 0.00 0.00
12:55 am 00:55 Clear 37 3 30 -1 75 75 Calm 30.47 1032 10 16 0.00 0.00
1:15 am 01:15 Clear 39 4 28 -2 65 65 E 5 7 30.46 1031 10 16 0.00 0.00
1:35 am 01:35 Clear 41 5 27 -3 56 56 VRB 3 6 30.46 1031 10 16 0.00 0.00
1:55 am 01:55 Clear 41 5 27 -3 56 56 E 5 7 30.44 1031 10 16 0.00 0.00
2:15 am 02:15 Clear 41 5 27 -3 56 56 E 5 7 30.44 1031 10 16 0.00 0.00
2:35 am 02:35 Clear 41 5 25 -4 52 52 VRB 6 9 30.46 1031 10 16 0.00 0.00
2:55 am 02:55 Clear 43 6 25 -4 49 49 E 6 9 30.45 1031 10 16 0.00 0.00
3:15 am 03:15 Mostly Clear 43 6 25 -4 49 49 Calm 30.46 1032 10 16 0.00 0.00
3:35 am 03:35 Mostly Cloudy 43 6 25 -4 49 49 ESE 3 6 30.46 1032 10 16 0.00 0.00
3:55 am 03:55 Cloudy 43 6 25 -4 49 49 E 7 11 30.46 1032 10 16 0.00 0.00
4:15 am 04:15 Cloudy 43 6 25 -4 49 49 E 6 9 30.47 1032 10 16 0.00 0.00
4:35 am 04:35 Cloudy 41 5 27 -3 56 56 E 7 11 30.46 1032 10 16 0.00 0.00
4:55 am 04:55 Cloudy 41 5 25 -4 52 52 E 5 7 30.46 1032 10 16 0.00 0.00
5:15 am 05:15 Cloudy 41 5 25 -4 52 52 E 6 9 30.49 1032 10 16 0.00 0.00
5:35 am 05:35 Cloudy 41 5 25 -4 52 52 E 6 9 30.49 1033 10 16 0.00 0.00
5:55 am 05:55 Cloudy 41 5 27 -3 56 56 E 8 13 30.49 1032 10 16 0.00 0.00
6:15 am 06:15 Cloudy 41 5 27 -3 56 56 E 7 11 30.49 1032 10 16 0.00 0.00
6:35 am 06:35 Cloudy 41 5 25 -4 52 52 VRB 5 7 30.47 1032 10 16 0.00 0.00
6:55 am 06:55 Cloudy 43 6 25 -4 49 49 E 6 9 30.49 1033 10 16 0.00 0.00
7:15 am 07:15 Cloudy 43 6 25 -4 49 49 ESE 8 13 30.48 1032 10 16 0.00 0.00
7:35 am 07:35 Cloudy 43 6 25 -4 49 49 ESE 8 13 30.47 1032 10 16 0.00 0.00
7:55 am 07:55 Mostly Cloudy 45 7 25 -4 45 45 VRB 7 11 30.48 1032 10 16 0.00 0.00
8:15 am 08:15 Sunny 45 7 27 -3 49 49 E 6 9 30.49 1032 10 16 0.00 0.00
8:35 am 08:35 Sunny 45 7 27 -3 49 49 E 5 7 30.50 1033 10 16 0.00 0.00
8:55 am 08:55 Mostly Sunny 45 7 27 -3 49 49 E 7 11 30.50 1033 10 16 0.00 0.00
9:15 am 09:15 Mostly Cloudy 46 8 27 -3 46 46 VRB 5 7 30.51 1033 10 16 0.00 0.00
9:35 am 09:35 Mostly Cloudy 46 8 27 -3 46 46 E 10 17 30.50 1033 10 16 0.00 0.00
9:55 am 09:55 Mostly Sunny 46 8 27 -3 46 46 ESE 12 19 30.49 1032 10 16 0.00 0.00
10:15 am 10:15 Sunny 48 9 27 -3 43 43 ESE 9 15 30.47 1032 10 16 0.00 0.00
10:35 am 10:35 Sunny 48 9 27 -3 43 43 ESE 7 11 30.47 1032 10 16 0.00 0.00
10:55 am 10:55 Sunny 50 10 28 -2 43 43 E 7 11 30.46 1031 10 16 0.00 0.00
11:15 am 11:15 Sunny 52 11 28 -2 40 40 E 9 15 30.46 1031 10 16 0.00 0.00
11:35 am 11:35 Sunny 52 11 28 -2 40 40 ESE 8 13 30.46 1031 10 16 0.00 0.00
11:55 am 11:55 Sunny 52 11 30 -1 43 43 E 9 15 30.45 1031 10 16 0.00 0.00
12:15 pm 12:15 Sunny 54 12 30 -1 40 40 ESE 12 19 30.44 1031 10 16 0.00 0.00
12:35 pm 12:35 Mostly Sunny 55 13 32 0 41 41 ESE 8 13 30.40 1029 10 16 0.00 0.00
12:55 pm 12:55 Sunny 55 13 34 1 44 44 E 8 13 30.39 1029 10 16 0.00 0.00
1:15 pm 13:15 Sunny 57 14 36 2 44 44 E 8 13 30.38 1029 10 16 0.00 0.00
1:35 pm 13:35 Sunny 57 14 36 2 44 44 E 10 17 30.37 1028 10 16 0.00 0.00
1:55 pm 13:55 Sunny 59 15 37 3 44 44 ESE 8 13 30.36 1028 10 16 0.00 0.00
2:15 pm 14:15 Sunny 61 16 39 4 45 45 SE 9 15 30.34 1028 10 16 0.00 0.00
2:35 pm 14:35 Sunny 63 17 41 5 45 45 SE 9 15 30.34 1027 10 16 0.00 0.00
2:55 pm 14:55 Partly Cloudy 63 17 43 6 48 48 SSE 10 17 30.34 1027 10 16 0.00 0.00
3:15 pm 15:15 Mostly Cloudy 63 17 43 6 48 48 SE 8 13 30.33 1027 10 16 0.00 0.00
3:35 pm 15:35 Partly Cloudy 63 17 43 6 48 48 VRB 5 7 30.34 1027 10 16 0.00 0.00
3:55 pm 15:55 Mostly Cloudy 61 16 43 6 51 51 VRB 5 7 30.33 1027 10 16 0.00 0.00
4:15 pm 16:15 Mostly Cloudy 63 17 43 6 48 48 VRB 7 11 30.34 1027 10 16 0.00 0.00
4:35 pm 16:35 Mostly Cloudy 61 16 45 7 55 55 VRB 6 9 30.34 1028 10 16 0.00 0.00
4:55 pm 16:55 Mostly Sunny 59 15 45 7 59 59 VRB 5 7 30.35 1028 10 16 0.00 0.00
5:15 pm 17:15 Partly Cloudy 59 15 45 7 59 59 ESE 8 13 30.31 1027 10 16 0.00 0.00
5:35 pm 17:35 Partly Cloudy 59 15 45 7 59 59 Calm 30.34 1027 10 16 0.00 0.00
5:55 pm 17:55 Mostly Cloudy 57 14 45 7 63 63 Calm 30.35 1028 10 16 0.00 0.00
6:15 pm 18:15 Cloudy 57 14 43 6 58 58 E 8 13 30.33 1027 10 16 0.00 0.00
6:35 pm 18:35 Cloudy 57 14 43 6 58 58 E 7 11 30.33 1027 10 16 0.00 0.00
6:55 pm 18:55 Cloudy 57 14 41 5 55 55 E 9 15 30.33 1027 10 16 0.00 0.00
7:15 pm 19:15 Cloudy 55 13 41 5 58 58 E 7 11 30.34 1027 10 16 0.00 0.00
7:35 pm 19:35 Cloudy 55 13 41 5 58 58 E 9 15 30.34 1027 10 16 0.00 0.00
7:55 pm 19:55 Cloudy 55 13 41 5 58 58 E 7 11 30.35 1028 10 16 0.00 0.00
8:15 pm 20:15 Cloudy 55 13 41 5 58 58 E 6 9 30.36 1028 10 16 0.00 0.00
8:35 pm 20:35 Cloudy 54 12 41 5 62 62 E 3 6 30.37 1029 10 16 0.00 0.00
8:55 pm 20:55 Cloudy 54 12 41 5 62 62 ESE 7 11 30.36 1028 10 16 0.00 0.00
9:15 pm 21:15 Cloudy 54 12 41 5 62 62 E 6 9 30.36 1028 10 16 0.00 0.00
9:35 pm 21:35 Cloudy 55 13 41 5 58 58 E 9 15 30.36 1028 10 16 0.00 0.00
9:55 pm 21:55 Cloudy 54 12 41 5 62 62 ESE 10 17 30.36 1028 10 16 0.00 0.00
10:15 pm 22:15 Cloudy 54 12 41 5 62 62 E 9 15 30.36 1028 10 16 0.00 0.00
10:35 pm 22:35 Cloudy 54 12 41 5 62 62 E 7 11 30.36 1028 10 16 0.00 0.00
10:55 pm 22:55 Cloudy 52 11 41 5 66 66 ESE 8 13 30.37 1028 10 16 0.00 0.00
11:15 pm 23:15 Cloudy 52 11 41 5 66 66 E 8 13 30.37 1028 10 16 0.00 0.00
11:35 pm 23:35 Cloudy 52 11 41 5 66 66 E 6 9 30.37 1028 10 16 0.00 0.00
11:55 pm 23:55 Cloudy 50 10 41 5 71 71 E 5 7 30.37 1028 10 16 0.00 0.00

Powered by AerisWeather